964  
ASUS41 KPHI 142012  
RWRPHI  
 
REGIONAL WEATHER ROUNDUP  
NATIONAL WEATHER SERVICE MOUNT HOLLY NJ  
400 PM EDT WED APR 14 2021  
 
NOTE: "FAIR" INDICATES FEW OR NO CLOUDS BELOW 12,000 FEET WITH NO  
SIGNIFICANT WEATHER AND/OR S TO VISIBILITY
.  
 
* = STATION DOES NOT REPORT PRECIPITATION (E.G. RAIN, SNOW, ETC.)  
OR FOG.
 
 
NJZ015>026-142100-  
SOUTHERN NEW JERSEY  
 
CITY SKY/WX TMP DP RH WIND PRES REMARKS
 
POMONA CLOUDY 64 51 62 SW9 29.98F  
WILDWOOD* LGT RAIN 60 54 80 SW6 30.01F  
MILLVILLE CLOUDY 60 53 77 VRB6 29.99F  
WRIGHTSTOWN DRIZZLE 62 53 71 SW14 29.97F  
MOUNT HOLLY LGT RAIN 63 48 58 SW6 29.97F  
TRENTON CLOUDY 60 52 74 SW5 29.96F  
 

 
NJZ001>014-142100-  
NORTHERN NEW JERSEY  
 
CITY SKY/WX TMP DP RH WIND PRES REMARKS
 
SUSSEX CLOUDY 64 48 56 SW3 29.94F  
ANDOVER* N/A 63 46 54 VRB7 29.93F  
MORRISTOWN PTSUNNY 68 52 56 SW12 29.95F  
NEWARK CLOUDY 69 43 38 SW13 29.94F  
TETERBORO CLOUDY 68 43 40 W13G21 29.95S  
CALDWELL CLOUDY 69 44 40 SW8 29.93F  
SOMERVILLE CLOUDY 63 50 62 VRB3 29.93F  
ALLAIRE* CLOUDY 66 48 52 W12 29.97F  
TOMS RIVER* CLOUDY 66 50 56 W15 29.98F  
 

 
PAZ043-044-047-054-055-060>062-066>071-142100-  
EASTERN PENNSYLVANIA  
 
CITY SKY/WX TMP DP RH WIND PRES REMARKS
 
PHILADELPHIA CLOUDY 62 51 67 S13 29.97F  
NORTH PHILA CLOUDY 62 52 69 SW9 29.98F  
BLUE BELL* CLOUDY 62 52 71 W6 29.97F  
DOYLESTOWN CLOUDY 62 51 67 SW5 29.95F  
QUAKERTOWN* PTSUNNY 61 50 67 SW6 29.96F  
PERKASIE* CLOUDY 59 54 82 SW5 29.97F  
POTTSTOWN CLOUDY 61 47 59 SW5 29.97F  
LANCASTER CLOUDY 61 48 62 SW7 29.95F  
COATESVILLE CLOUDY 59 52 77 VRB6 29.98F  
WEST CHESTER CLOUDY 61 50 67 SW6 29.97F  
READING CLOUDY 62 52 69 SW8 29.94F  
ALLENTOWN CLOUDY 61 50 67 SW7 29.94F  
QN CITY/ALNTWN CLOUDY 61 50 67 W8 29.96F  
MOUNT POCONO CLOUDY 56 47 71 S9 29.93F  
HAZLETON CLOUDY 61 45 55 SW6 29.95F  
LEHIGHTON CLOUDY 61 52 72 SW3 29.94F  
WILKES BARRE CLOUDY 65 47 52 SW9 29.91F  
 

 
DEZALL-MDZ008-012-015-019-020-142100-  
DELAWARE AND EASTERN MARYLAND  
 
CITY SKY/WX TMP DP RH WIND PRES REMARKS
 
WILMINGTON CLOUDY 61 51 70 SW12 29.98F  
DOVER PTSUNNY 60 53 79 SW9 29.99F  
CHESWOLD CLEAR 61 52 72 SW8 30.00F  
GEORGETOWN LGT RAIN 60 51 72 W3 30.02F  
EASTON LGT RAIN 61 57 88 S6 30.04F  
ABERDEEN LGT RAIN 58 56 92 SW8 29.98F  
PATUXENT LGT RAIN 58 57 97 SE6 30.00F  
OCEAN CITY LGT RAIN 58 53 84 S3 30.02F  
WALLOPS ISLAND CLOUDY 58 49 72 S9 30.03F  
CAMBRIDGE SUNNY 59 59 100 SE7 30.01F  
SALISBURY LGT RAIN 60 49 66 SW3 30.02F  
 

 
PAZ001-021-NYZ056-072-MDZ011-DCZ001-142100-  
OTHER NEARBY LOCATIONS  
 
CITY SKY/WX TMP DP RH WIND PRES REMARKS
 
HARRISBURG CLOUDY 61 50 67 S6 29.94F  
STATE COLLEGE PTSUNNY 61 43 51 SW8 29.92F  
WILLIAMSPORT FAIR 64 48 56 SE6 29.89F  
BINGHAMTON CLOUDY 60 44 55 W3 29.89F  
NEW YORK CITY CLOUDY 69 41 36 S8G18 29.96F  
BALTIMORE LGT RAIN 59 55 87 SE5 29.98F FOG  
WASHINGTON DC LGT RAIN 59 55 87 S6 30.00F  
 

 
 
 
CLICK HERE TO GO TO PREVIOUS BULLETINS.

The Nexlab PA Page
The Nexlab NJ Page
The Nexlab DE Page
The Nexlab MD Page Main Text Page